Simultaneous Nadir Overpasses (SNOs) Predictions

Prediction of SNOs between GOES-15 and METOP-A Satellite Orbit:

Table of predicted SNOs for the next 14.0 days since TLE Epoch: 7/31/2020
Index Date Time (GOES-15) GOES-15 Lat,Lon METOP-A Lat,Lon Distance(km) Time Diff (sec)
1 08/01/2020 17:13:52 -0.00,-128.36 0.29,-129.58 139.38 80
2 08/02/2020 16:55:53 -0.00,-128.36 -0.84,-124.61 427.25 80
3 08/04/2020 05:14:52 0.00,-128.33 -0.22,-129.23 102.48 80
4 08/05/2020 04:51:32 0.01,-128.32 0.91,-124.25 463.62 80
5 08/06/2020 17:10:24 -0.01,-128.31 0.08,-128.85 60.74 80
6 08/09/2020 05:11:24 0.01,-128.28 -0.02,-128.49 23.80 80
7 08/11/2020 17:09:34 -0.01,-128.24 -0.07,-128.10 16.93 80
8 08/14/2020 05:05:13 0.00,-128.20 0.08,-127.73 52.44 80
